{"data":{"norad_id":60307,"intl_designator":"2024-133G","name":"STARLINK-11223 [DTC]","alt_names":[],"object_type":"PAYLOAD","status":"ACTIVE","operator":null,"country":"US","launch_date":"2024-07-28","launch_site_code":"AFWTR","launch_vehicle":null,"mission":null,"orbit_class":"UNKNOWN","rcs_meters":null,"size_class":null,"mass_kg":null,"dimensions":null,"purposes":["comms"],"wikipedia_slug":null,"has_3d_model":false,"image_url":null,"decayed_at":null,"tle_current":{"epoch":"2026-05-25T03:18:52.197696Z","epoch_age_seconds":73531,"freshness":"FRESH","line1":"1 60307U 24133G   26145.13810414  .00000923  00000+0  12481-4 0  9992","line2":"2 60307  53.1587 129.1780 0001102  72.6524 287.4615 15.69705150105744","mean_motion":15.6970515,"eccentricity":0.0001102,"inclination_deg":53.1587,"raan_deg":129.178,"arg_perigee_deg":72.6524,"mean_anomaly_deg":287.4615,"bstar":1.2481e-5,"rev_number":10574,"period_min":91.736973660308,"perigee_km":358.99811518429,"apogee_km":360.48314341378,"semimajor_km":6737.877629299,"source":"CELESTRAK","updated_at":"2026-05-25T13:38:19.229091Z"}}}